Miscellaneous Local Product
Issued by NWS North Platte, NE

Home | Current Version | Previous Version | Text Only | Print | Product List | Glossary On
Versions: 1 2 3 4 5 6 7 8 9 10 11 12 13 14 15 16 17 18 19 20 21 22 23 24 25 26 27 28 29 30 31 32 33 34 35 36 37 38 39 40 41 42 43 44 45 46 47 48 49 50
000
AXUS43 KLBF 180710
MISLBF


WESTERN AND NORTH CENTRAL NEBRASKA HOURLY WEATHER ROUNDUP
NATIONAL WEATHER SERVICE NORTH PLATTE NE
200 AM CDT THU SEP 18 2014

***STATIONS NOT REPORTING VARIABLES SUCH AS SKY/WEATHER OR
PRESSURE ARE PROVIDED BY THE NEBRASKA DEPARTMENT OF
ROADS...RAWS...AND APRS NETWORKS...AND ARE NOT UNDER
NATIONAL WEATHER SERVICE QUALITY CONTROL***

...OBSERVATIONS IN AND NEAR THE EASTERN PANHANDLE OF NEBRASKA...

CITY           SKY/WX    TMP DP  RH WIND       PRES   REMARKS
PINE RIDGE     CLEAR     58  54  86 NE9       29.95F
CHADRON        CLEAR     55  51  86 W9        29.93F
ALLIANCE       CLEAR     62  57  83 S12       29.97S
SIDNEY         CLEAR     58  55  90 SE3       30.02S
WHITECLAY        N/A     60  53  77 SE14        N/A
RUSHVILLE        N/A     58  53  85 E14         N/A
CRESCENT LAKE    N/A     63  60  90 S6          N/A
LISCO            N/A     67  59  76 E8          N/A
BIG SPRINGS      N/A     63  60  88 E3          N/A
$$

...OBSERVATIONS IN NORTH CENTRAL NEBRASKA...

CITY           SKY/WX    TMP DP  RH WIND       PRES   REMARKS
VALENTINE      CLEAR     58  54  86 SE5       29.99F
THEDFORD       CLEAR     59  58  96 CALM      29.98S
AINSWORTH      CLEAR     56  54  94 E5        29.99S
O`NEILL        PTCLDY    61  57  86 SE5       29.98F
ORD            CLEAR     59  57  93 CALM      29.96S
BROKEN BOW     FOG       56  54  93 SE3       29.97S VSB 3/4
SPRINGVIEW       N/A     57  54  91 CALM        N/A
ROSE             N/A     62  62  99 E5          N/A
NEWPORT          N/A     57  56  94 E3          N/A
COMSTOCK         N/A     64  63  97 S5          N/A
CHAMBERS         N/A     58  55  91 CALM        N/A
$$

...OBSERVATIONS IN SOUTHWEST NEBRASKA AND FAR NORTHEAST COLORADO...

CITY           SKY/WX    TMP DP  RH WIND       PRES   REMARKS
WRAY           FAIR      62  60  93 CALM      29.98S
HOLYOKE        FAIR      64  61  88 SE8       29.99S
IMPERIAL       PTCLDY    64  61  90 SE7       29.97F
OGALLALA       PTCLDY    65  62  89 S5        29.98S
NORTH PLATTE   PTCLDY    59  58  96 E3        29.97S FOG
MCCOOK         MOCLDY    63  61  93 CALM      29.96S
LEXINGTON      PTCLDY    60  58  94 E3        29.98R FOG
PAXTON           N/A     66  61  84 SE5         N/A
SUTHERLAND       N/A     64  60  90 SE8         N/A
BRADY            N/A     59  57  92 CALM        N/A
GOTHENBURG       N/A     60  56  87 CALM        N/A
CALLAWAY         N/A     61  60  95 SE9         N/A
$$

...SOME WEATHER OBSERVATIONS FROM AROUND THE REGION...

CITY           SKY/WX    TMP DP  RH WIND       PRES   REMARKS
DENVER         PTCLDY    60  44  55 S10       30.08R
LARAMIE        CLEAR     45  37  73 SW9       30.19F
CHEYENNE       CLEAR     54  42  64 W7        30.11F
SCOTTSBLUFF    CLEAR     56  53  90 SE6       29.98S
RAPID CITY     CLEAR     57  51  80 SE6       29.96F
PIERRE         CLEAR     52  46  80 E7        29.94S
WINNER         FAIR      63  56  78 SE15      29.93F
SIOUX FALLS    PTCLDY    59  55  87 E5        29.98S
OMAHA          PTCLDY    64  58  80 SE8       29.99S
GRAND ISLAND   CLEAR     60  58  92 SE3       29.97R
KANSAS CITY    CLOUDY    63  62  97 E9        29.97R FOG
WICHITA        MOCLDY    73  66  78 SE3       29.85F
HAYS           CLOUDY    68  63  83 E14       29.89F
LIBERAL        CLEAR     66  57  72 SW10      29.95S
GOODLAND       PTCLDY    61  60  97 S6        29.97F
$$



USA.gov is the U.S. government's official web portal to all federal, state and local government web resources and services.